Location: Corocito
(10.1894°N, 67.0986°W)
Time: 11:58:22
(UTC+00:00)

CBERS 1 LM4 rocket - Pass Details

Date: 29 May 2024
Orbit: 698 x 837 km, 98.8° (Epoch: 16 June)

Event Time Altitude Azimuth Distance (km) Brightness Sun altitude
Rises 23:25:39 0° 165° (SSE) 3,179 7.3 -9.8°
Reaches altitude 10° 23:27:53 10° 165° (SSE) 2,275 6.6 -10.3°
Maximum altitude 23:32:55 83° 77° (ENE) 785 4.5 -11.4°
Drops below altitude 10° 23:38:08 10° 350° (N) 2,364 7.5 -12.5°
Sets 23:40:30 0° 349° (N) 3,312 8.3 -13.1°
